Regional Weather Roundup
Issued by NWS

Home | Current Version | Previous Version | Graphics & Text | Print | Product List | Glossary On
Versions: 1 2 3 4 5 6 7 8 9 10 11 12 13 14 15 16 17 18 19 20 21 22 23 24 25 26 27 28 29 30 31 32 33 34 35 36 37 38 39 40 41 42 43 44 45 46 47 48 49 50
000
ASUS43 KMKX 230800
RWRWI

WISCONSIN REGIONAL WEATHER ROUNDUP
NATIONAL WEATHER SERVICE MILWAUKEE/SULLIVAN WI
300 AM CDT MON OCT 23 2017

NOTE: "FAIR" INDICATES FEW OR NO CLOUDS BELOW 12,000 FEET WITH NO
SIGNIFICANT WEATHER AND/OR OBSTRUCTIONS TO VISIBILITY.

WIZ001-002-006>008-014>016-023>028-230900-
NORTHWEST WISCONSIN

CITY           SKY/WX    TMP DP  RH WIND       PRES   REMARKS
SUPERIOR ARPT  MOCLDY    55  33  42 S10       29.76F
ASHLAND        CLOUDY    52  39  61 S10       29.84F
HAYWARD        LGT RAIN  52  38  58 S14       29.84F
SIREN          RAIN      54  32  43 S10       29.83S
CUMBERLAND     CLOUDY    46  36  66 S8        29.86F
RICE LAKE      CLOUDY    49  40  71 SE9       29.89F
CHETEK         LGT RAIN  48  41  76 S8G16     29.90F
LADYSMITH      CLOUDY    45  41  85 CALM      29.93S
EAU CLAIRE     NOT AVBL
MENOMONIE      CLOUDY    48  43  81 E3        29.91R
NEW RICHMOND   CLOUDY    52  36  54 S10G20    29.86S
OSCEOLA        CLOUDY    53  35  50 S10       29.86F
$$

WIZ003>005-009-010-017-018-230900-
NORTH CENTRAL WISCONSIN

CITY           SKY/WX    TMP DP  RH WIND       PRES   REMARKS
MANITOWISH WTR PTCLDY    40  40 100 S5        29.91S
ARBOR VITAE    PTCLDY    42  40  93 S6        29.91F
WOODRUFF       PTCLDY    42  40  93 S6        29.91F
RHINELANDER    CLEAR     42  40  92 SW8       29.93F
EAGLE RIVER    NOT AVBL
LAND O LAKES   CLEAR     38  38 100 CALM      29.93F
PHILLIPS       PTCLDY    42  40  93 S5        29.91S
TOMAHAWK       CLEAR     35  35  96 CALM      29.93F FOG
MEDFORD        CLEAR     37  37  97 S6        29.93S WCI  33
MERRILL        FOG       31  31 100 CALM      29.95F VSB 3/4
$$

WIZ029-030-035-036-043>047-230900-
CENTRAL WISCONSIN

CITY           SKY/WX    TMP DP  RH WIND       PRES   REMARKS
WAUSAU         FOG       38  38 100 E3        29.94S VSB 1/4
MOSINEE        SNOW      37  37 100 S5        29.96F VSB 1/2 WCI  34
MARSHFIELD     CLEAR     38  36  92 S5        29.93F WCI  34
STEVENS POINT  FOG       38  38 100 CALM      29.97F VSB 1/4
WAUPACA        FOG       43  42  97 CALM      29.98F VSB 1/4
WAUTOMA        FOG      N/A N/A N/A CALM      29.98F VSB 3/4
WISC RAPIDS    CLEAR     37  37 100 CALM      29.96F FOG
CAMP DOUGLAS   NOT AVBL
$$

WIZ011>013-019>022-031-037>040-048>050-230900-
NORTHEAST WISCONSIN

CITY           SKY/WX    TMP DP  RH WIND       PRES   REMARKS
ANTIGO         FOG       33  33 100 CALM      29.95F VSB 1/4
SHAWANO        FOG       44  42  95 CALM      29.97F VSB 1/4
OCONTO         CLOUDY    43  43 100 W3        29.97F VSB 1/4
STURGEON BAY   CLOUDY    46  46 100 CALM      29.97F
GREEN BAY      FOG       43  43 100 CALM      29.97F VSB 1/4
MANITOWOC      CLOUDY    47  47 100 CALM      29.98F FOG
APPLETON       FOG       45  45 100 SW5       29.96F VSB<1/4
CLINTONVILLE   NOT AVBL
OSHKOSH        PTCLDY    44  43  96 CALM      29.97F FOG
$$

WIZ032>034-041-042-053>061-230900-
SOUTHWEST WISCONSIN

CITY           SKY/WX    TMP DP  RH WIND       PRES   REMARKS
LA CROSSE      CLEAR     46  42  86 SE5       29.94F
SPARTA         CLEAR     31  31 100 CALM      29.96F
VIROQUA        CLEAR     43  41  93 S6        29.96F
BOSCOBEL       FOG       41  40  96 CALM      29.99F VSB 1/4
PRAIRIE DU CHI FOG       40  39  96 SE3       29.98F VSB 1/4
PLATTEVILLE    CLOUDY    44  44 100 S3        29.99F
$$

WIZ056-057-062-063-064-067-068-230900-
SOUTH CENTRAL WISCONSIN

CITY           SKY/WX    TMP DP  RH WIND       PRES   REMARKS
REEDSBURG      CLOUDY    38  38 100 CALM      29.97F FOG
BARABOO/DELLS  FOG       40  39  98 CALM      29.97F VSB 1/4
LONE ROCK      NOT AVBL
MINERAL POINT  CLOUDY    45  45 100 CALM      29.99S
MADISON        CLOUDY    44  43  96 CALM      29.98F
MIDDLETON      CLOUDY    46  46 100 CALM      29.99F
WATERTOWN      CLOUDY    47  47 100 CALM      29.99S FOG
MONROE         CLOUDY    46  45  93 W9        29.98F
JANESVILLE     CLOUDY    48  48 100 CALM      29.98S
$$

WIZ051-052-058>065-066-070>072-230900-
SOUTHEAST WISCONSIN

CITY           SKY/WX    TMP DP  RH WIND       PRES   REMARKS
MILWAUKEE      LGT RAIN  51  49  92 NW3       29.97F
WAUKESHA       CLOUDY    46  45  93 CALM      29.99S
MILWAUKEE/TIMM DRIZZLE   48  45  87 CALM      29.99F
RACINE         LGT RAIN  50  49  96 NW6       29.97F
BURLINGTON     DRIZZLE   48  48 100 CALM      29.97F
KENOSHA        LGT RAIN  50  48  93 N7        29.96F
FOND DU LAC    CLOUDY    47  44  90 SW3       29.98F
SHEBOYGAN      CLOUDY    49  49 100 W3        29.98S
WEST BEND      CLOUDY    46  46 100 CALM      29.98S
JUNEAU         FOG       45  44  98 CALM      30.00S VSB 1/2
$$

LSZ147-162-230900-
LAKE SUPERIOR

STATION/POSITION TIME  TEMP    WIND        PRES    WAVE
                       AIR SEA DIR/SP/G            HT/PER
                 (UTC) (F)     (DEG/KT/KT) (MB)    (FT/S)
W MID LAKE BUOY  0650   53 51              1010.7F   3/ 5
DEVILS ISLAND    0700   55     170/ 12/ 18 1010.0F
PORT WING        0640          160/ 10/ 15 1009.5
SAXON HARBOR     0740   52     180/  6/ 10 1011.2S
$$

LMZ867-665-643>646-230900-
LAKE MICHIGAN

STATION/POSITION TIME  TEMP    WIND        PRES    WAVE
                       AIR SEA DIR/SP/G            HT/PER
                 (UTC) (F)     (DEG/KT/KT) (MB)    (FT/S)
S GREEN BAY BUOY 0730   51 58  270/  8/ 12 1014.8R
N MID LAKE BUOY  0650   53 57  260/  8/  8 1015.6F   2/ 6
NORTHPORT PIER   0740   46      CALM  /  2 1014.9S
KEWAUNEE LAKESHO 0730   48     270/  1/  3 1014.4S
SHEBOYGAN LAKESH 0700   50     160/  2/  2 1015.5F
PORT WASHINGTON  0730   51      CALM  /  3 1015.9F
MILWAUKEE LAKESH 0730   51     320/  2/  3   N/A
S MID LAKE BUOY  0650   54 60  360/ 14/ 17 1014.6F   3/ 5
KENOSHA   LAKESH 0700   51     320/  7/  9 1015.2
$$

TC  - TEMPERATURE IN CELSIUS
VSB - VISIBILITY IN STATUTE MILES
WCI - WIND CHILL INDEX
HX  - HEAT INDEX





USA.gov is the U.S. government's official web portal to all federal, state and local government web resources and services.